SCP
0 0 0 0 0 0 0 0 0 0 2 1 1 1 0 0 0 0 0 0 0 0 0 0 0 0 0 0 0 0 0 0 0 0 0 0 0 0 0 0 0 0 0
0 0 0 0 0 0 0 0 0 0 0 0 0 1 0 0 0 0 0 0 0 0 0 0 0 0 0 0 0 0 0 0 0 0 0 0 0 0 0 0 0 0 0
0 0 0 0 0 0 0 0 0 0 0 0 0 0 0 0 0 0 0 0 0 0 0 0 0 0 0 0 0 0 0 0 0 0 0 0 0 0 0 0 0 0 0
0 0 0 0 0 0 0 0 0 0 0 0 0 0 0 0 0 0 0 0 0 0 0 0 0 0 0 0 0 0 0 0 0 0 0 0 0 0 0 0 0 0 0
0 0 0 0 0 0 0 0 0 0 0 0 0 0 0 0 0 0 0 0 0 0 0 0 0 0 0 0 0 0 0 0 0 0 0 0 0 0 0 0 0 0 0
0 0 0 0 0 0 0 0 0 0 0 0 0 0 0 0 0 0 0 0 0 0 0 0 0 0 0 0 0 0 0 0 0 0 0 0 0 0 0 0 0 0 0
-0 -0 0 0 0 0 0 0 0 0 0 0 0 0 0 0 0 0 0 0 0 0 0 0 0 0 0 0 0 0 0 0 0 0 0 0 0 0 0 0 0 0 0
-0 -0 -0 -0 -0 -0 0 0 0 0 0 0 0 0 0 0 0 0 0 0 0 0 0 0 0 0 0 0 0 0 0 0 0 0 0 0 0 0 0 0 0 0 0
-0 -0 -0 -0 0 -0 -0 -0 0 0 0 0 0 0 0 0 0 0 0 0 0 0 0 0 0 0 0 0 0 0 0 0 0 0 0 0 0 0 0 0 0 0 0
-0 -0 -0 -0 -0 0 0 0 0 0 0 0 0 0 0 0 0 0 0 0 0 0 0 0 0 0 0 0 0 0 0 0 0 0 0 0 0 0 0 0 0 0 0
0 0 0 0 0 0 0 0 0 0 0 0 0 0 0 0 0 0 0 0 0 0 0 0 0 0 0 0 0 0 0 0 0 0 0 0 0 0 0 0 0 0 0
-0 0 0 0 0 0 0 0 0 -0 0 0 0 0 0 0 0 0 0 0 0 0 0 0 0 0 0 0 0 0 0 0 0 0 0 0 0 0 0 0 0 0 0
-0 -0 -0 0 0 0 -0 0 0 0 0 0 0 0 0 0 0 0 0 0 0 0 0 0 0 0 0 0 0 0 0 0 0 0 0 0 0 0 0 0 0 0 0
0 0 0 -0 -0 -0 0 0 0 0 0 0 0 0 0 0 0 0 0 0 0 0 0 0 0 0 0 0 0 0 0 0 0 0 0 0 0 0 0 0 0 0 0
0 0 0 0 0 -0 -0 -0 -0 0 0 0 0 0 0 0 0 0 0 0 0 0 0 0 0 0 0 0 0 0 0 0 0 0 0 0 0 0 0 0 0 0 0
0 0 0 0 0 0 0 0 -0 -0 0 0 0 0 0 0 0 0 0 0 0 0 0 0 0 0 0 0 0 0 0 0 0 0 0 0 0 0 0 0 0 0 0
0 0 0 0 0 0 0 0 0 0 0 0 0 0 0 0 0 0 0 0 0 0 0 0 0 0 0 0 0 0 0 0 0 0 0 0 0 0 0 0 0 0 0
0 -0 0 0 0 0 0 0 0 0 0 0 0 0 0 0 0 0 0 0 0 0 0 0 0 0 0 0 0 0 0 0 0 0 0 0 0 0 0 0 0 0 0
-0 -0 -0 0 0 0 0 0 0 0 0 0 0 0 0 0 0 0 0 0 0 0 0 0 0 0 0 0 0 0 0 0 0 0 0 0 0 0 0 0 0 0 0
-0 -0 -0 -0 -0 -0 0 0 0 0 0 0 0 0 0 0 0 0 0 0 0 0 0 0 0 0 0 0 0 0 0 0 0 0 0 0 0 0 0 0 0 0 0
-0 -0 -0 -0 -0 0 0 0 0 0 0 0 0 0 0 0 0 0 0 0 0 0 0 0 0 0 0 0 0 0 0 0 0 0 0 0 0 0 0 0 0 0 0
0 -0 -0 -0 -0 0 0 0 0 0 0 0 0 0 0 0 0 0 0 0 0 0 0 0 0 0 0 0 0 0 0 0 0 0 0 0 0 0 0 0 0 0 0
-0 -0 -0 -0 0 0 0 0 0 0 0 0 0 0 0 0 0 0 0 0 0 0 0 0 0 0 0 0 0 0 0 0 0 0 0 0 0 0 0 0 0 0 0
-0 -0 -0 -0 -0 0 0 0 0 0 0 0 0 0 0 0 0 0 0 0 0 0 0 0 0 0 0 0 0 0 0 0 0 0 0 0 0 0 0 0 0 0 0
-0 -0 -0 -0 -0 -0 0 0 0 0 0 0 0 0 0 0 0 0 0 0 0 0 0 0 0 0 0 0 0 0 0 0 0 0 0 0 0 0 0 0 0 0 -0
-0 -0 -0 -0 -0 -0 0 0 0 0 0 -0 0 0 0 0 0 0 0 0 0 0 0 0 0 0 0 0 0 0 0 0 0 0 0 0 0 0 0 0 0 0 0
Wind_Speed_500mb
40 45 56 62 66 71 82 83 83 82 79 76 63 71 95 89 89 92 89 101 104 105 108 106 101 96 101 100 99 93 94 94 97 89 81 76 72 71 68 67 64 61 62
60 57 53 40 35 37 42 51 69 71 69 80 69 65 80 74 83 79 87 95 105 94 101 108 106 106 107 109 107 104 102 98 100 96 93 89 82 79 75 72 71 71 71
72 65 62 58 52 45 38 32 34 49 53 49 57 73 66 69 59 60 83 69 79 83 102 102 102 106 116 115 114 110 106 102 101 98 97 93 89 87 83 82 83 83 81
64 72 71 63 50 49 41 30 23 21 21 28 28 22 37 46 57 80 83 70 75 99 95 95 83 89 94 112 105 108 111 110 111 103 97 99 97 94 92 91 94 94 92
50 51 53 53 52 48 36 35 26 21 18 10 9 16 19 23 21 25 65 64 91 87 99 112 102 90 87 88 88 93 122 116 115 110 99 100 101 101 101 96 99 96 98
41 37 36 37 37 34 34 37 41 25 13 15 7 10 12 10 19 30 29 40 57 67 81 80 78 79 81 75 77 91 107 93 102 97 95 97 93 105 93 100 95 97 97
34 37 32 28 14 14 20 20 20 25 26 17 16 9 9 12 15 25 30 36 38 48 57 65 76 71 81 78 83 88 80 82 74 76 90 88 82 85 75 78 88 84 87
31 22 25 23 23 20 15 15 15 20 19 16 17 15 10 11 17 22 25 29 34 41 47 44 62 64 64 74 81 80 77 78 83 84 83 83 81 75 71 70 76 78 82
20 26 32 30 29 27 28 23 22 21 20 23 20 16 15 16 16 20 25 31 36 34 39 46 55 54 54 65 68 74 77 77 66 83 81 83 89 79 79 82 78 79 80
38 38 38 39 41 40 40 40 33 31 36 31 32 29 25 19 21 24 25 26 33 41 48 47 46 49 57 65 55 53 61 65 66 71 77 74 74 77 77 86 90 86 82
39 37 35 36 39 41 45 44 45 48 48 46 43 41 41 35 29 29 32 32 33 38 39 42 52 56 56 56 60 62 63 59 62 61 69 62 59 63 75 72 72 79 83
39 41 43 44 42 44 49 51 50 52 58 61 56 53 49 47 45 41 37 37 38 40 39 42 46 50 56 58 64 66 64 63 64 62 62 55 54 61 64 66 67 62 69
49 51 52 53 53 54 56 55 58 61 65 66 66 67 66 61 57 56 50 47 46 48 45 42 45 48 48 55 61 66 64 61 69 69 67 65 64 52 54 57 55 60 57
55 58 63 64 61 61 61 64 67 67 68 69 73 74 72 77 73 60 56 55 50 50 48 52 51 45 48 50 49 51 55 60 64 66 65 62 59 54 54 50 54 55 54
63 68 69 68 69 69 66 63 64 70 72 73 72 74 76 82 79 75 62 56 56 52 48 55 51 41 41 43 42 44 50 49 56 63 63 64 59 53 53 50 49 50 53
63 67 70 74 75 75 75 78 69 67 63 67 71 70 77 84 82 82 72 62 58 55 53 56 51 43 42 40 40 40 46 49 54 59 61 58 55 53 53 50 46 49 51
60 67 70 69 69 73 76 79 89 80 69 69 66 65 71 76 79 83 73 63 59 59 60 56 51 46 46 43 41 44 45 49 51 53 56 55 51 50 51 53 53 53 51
60 66 67 69 70 68 68 66 69 73 81 83 72 66 60 64 68 69 65 59 65 64 61 65 54 49 50 47 46 50 49 48 48 48 47 44 44 46 47 46 48 50 47
65 69 70 70 70 71 68 68 64 66 70 77 76 72 62 52 56 60 60 66 71 66 61 60 58 52 51 48 48 49 47 49 47 45 43 41 41 42 44 45 45 45 45
67 70 72 77 77 77 71 69 64 65 64 66 69 68 55 46 49 57 64 72 71 62 56 51 53 53 52 50 46 48 49 49 46 42 41 41 42 43 43 40 39 41 42
66 69 73 75 71 71 66 63 57 55 55 50 49 46 46 47 44 47 60 65 60 55 51 50 54 54 55 51 53 52 52 49 46 46 47 46 46 46 41 38 36 36 39
61 64 65 66 63 63 61 58 52 41 37 39 39 36 36 38 39 42 54 50 47 50 50 49 53 55 54 54 54 55 54 52 51 51 51 49 48 48 48 45 43 39 38
56 62 65 63 60 59 59 55 48 38 31 30 32 35 34 31 31 36 36 29 39 47 44 47 50 55 56 58 58 55 54 52 50 49 50 49 47 45 45 44 43 40 35
50 54 58 56 55 52 49 48 45 37 30 26 26 23 17 22 20 21 21 30 38 44 45 50 57 58 57 56 53 51 48 48 47 45 43 46 46 44 41 38 35 33 34
45 48 53 54 51 49 43 38 34 29 25 19 13 14 17 18 18 19 26 35 39 46 47 50 53 54 55 56 54 52 50 48 47 45 43 42 43 42 41 40 39 37 35
42 44 46 48 48 44 43 36 27 19 12 7 5 10 13 16 20 28 35 39 49 53 54 56 54 51 49 47 48 49 49 49 47 46 46 44 45 44 43 42 40 38 37
Wind_Direction_500mb
159 196 205 205 210 216 221 221 223 218 214 211 224 240 235 242 244 244 243 242 241 237 236 232 234 238 240 242 244 245 245 244 245 252 255 256 258 260 260 262 261 260 260
73 86 100 139 159 175 187 203 220 221 222 221 229 219 224 234 245 237 245 236 238 240 243 241 238 238 239 243 245 245 245 245 244 249 253 256 259 263 264 265 265 265 264
66 61 62 72 78 89 106 119 153 186 196 208 228 234 227 224 218 231 237 234 234 260 245 248 248 245 242 238 241 245 248 250 249 247 252 256 259 260 260 263 263 263 261
59 60 56 52 54 60 65 72 77 107 159 176 189 188 212 232 242 238 238 253 247 238 256 245 251 247 240 235 235 248 248 247 248 246 248 252 257 259 260 260 262 263 264
42 46 50 57 56 46 51 46 51 64 78 105 154 183 212 211 221 217 224 239 235 244 247 243 245 250 257 243 248 258 246 248 245 245 246 251 251 253 256 264 263 267 266
43 43 24 18 34 52 47 26 39 25 35 34 232 134 213 211 228 235 234 224 226 232 236 238 239 242 249 248 248 251 257 250 252 251 252 254 262 257 271 259 264 260 258
35 25 22 31 24 3 352 7 27 9 22 19 14 347 277 245 225 225 238 244 239 226 228 234 240 251 249 251 248 245 245 252 257 261 256 254 262 263 270 269 268 262 277
15 7 357 353 347 343 348 333 314 321 344 351 356 337 337 313 285 265 255 247 242 240 241 238 236 243 254 258 245 250 248 253 255 250 252 258 264 263 268 272 272 268 263
342 339 333 332 323 315 304 302 313 312 305 288 284 292 311 314 303 290 282 274 264 254 251 246 240 240 242 246 253 250 255 253 248 253 251 257 263 262 265 262 255 256 250
339 333 328 315 311 305 301 293 290 295 288 288 281 277 277 283 294 294 286 279 273 261 255 256 255 250 244 247 248 250 256 259 258 260 249 255 250 247 252 259 260 257 252
341 334 325 317 311 306 299 292 291 280 278 278 277 277 276 271 270 282 289 286 280 274 265 254 252 253 248 243 242 247 251 258 260 256 258 255 256 248 244 249 251 254 256
338 332 326 323 316 307 299 294 288 283 275 272 269 267 269 272 273 269 270 283 292 285 270 259 256 252 252 248 243 243 246 251 252 250 254 254 254 251 245 251 252 249 255
334 332 330 325 320 314 307 299 290 283 281 277 271 265 264 263 264 268 275 281 288 292 285 269 253 252 250 248 247 242 243 244 247 246 246 241 242 250 244 240 238 236 240
332 331 330 328 325 318 314 305 297 289 281 276 274 270 266 263 260 260 267 270 272 282 288 285 269 251 253 254 250 247 244 243 247 247 245 245 238 232 232 231 230 227 226
330 330 329 327 322 318 312 299 293 291 287 284 275 270 265 261 261 260 257 266 269 271 279 278 271 259 256 252 251 251 250 242 240 245 241 239 235 228 223 224 223 224 223
327 328 329 327 324 320 316 311 302 292 286 279 277 272 263 257 253 254 253 250 256 263 269 269 261 252 252 251 249 247 251 244 239 235 232 230 225 222 215 210 211 214 213
325 327 326 323 321 320 316 314 311 306 296 289 284 273 266 261 252 250 248 246 245 251 258 257 254 250 251 245 243 243 243 240 233 226 223 220 215 217 208 201 197 201 200
325 327 326 326 322 314 315 311 303 300 298 296 289 281 271 267 256 252 246 241 242 241 250 250 245 246 247 242 238 237 229 224 220 219 215 210 208 206 203 197 194 189 190
328 330 330 327 324 322 319 317 308 297 294 285 285 275 271 258 256 251 240 232 233 237 246 249 238 234 238 236 229 226 221 217 209 207 208 199 193 195 190 185 179 180 179
331 333 334 332 331 330 326 321 316 301 296 284 275 267 268 263 248 237 227 224 228 235 244 248 242 233 229 225 220 211 206 202 193 189 189 180 169 169 169 167 174 180 180
334 334 336 332 331 327 324 318 311 298 288 286 279 273 261 258 255 238 226 224 229 237 239 242 238 229 219 209 202 199 196 186 178 174 170 168 164 163 159 161 166 171 167
338 336 336 334 333 329 328 323 318 310 302 297 287 277 268 268 253 234 225 228 242 248 236 230 222 215 203 194 189 185 179 171 166 162 159 157 155 152 151 157 161 168 169
342 343 343 340 338 336 334 332 329 326 322 308 297 288 275 250 229 220 222 241 239 231 217 211 206 194 181 171 166 163 163 161 159 158 158 156 155 155 156 160 164 168 170
346 347 348 347 347 344 338 334 337 338 333 320 299 281 259 221 214 218 228 242 218 209 199 186 180 174 169 162 159 156 158 157 156 154 159 159 156 153 153 160 168 173 178
345 348 353 355 355 356 350 343 339 335 334 330 303 258 228 218 217 227 221 204 197 185 171 165 162 160 158 156 156 156 157 157 157 158 158 159 158 158 161 166 172 173 177
352 351 356 1 5 5 6 5 1 355 347 320 262 218 207 202 202 195 185 176 171 162 154 151 148 150 153 155 155 157 157 160 161 162 162 163 163 162 168 174 175 175 176
Wind_Speed_850mb
40 45 56 62 66 71 82 83 83 82 79 76 63 71 95 89 89 92 89 101 104 105 108 106 101 96 101 100 99 93 94 94 97 89 81 76 72 71 68 67 64 61 62
60 57 53 40 35 37 42 51 69 71 69 80 69 65 80 74 83 79 87 95 105 94 101 108 106 106 107 109 107 104 102 98 100 96 93 89 82 79 75 72 71 71 71
72 65 62 58 52 45 38 32 34 49 53 49 57 73 66 69 59 60 83 69 79 83 102 102 102 106 116 115 114 110 106 102 101 98 97 93 89 87 83 82 83 83 81
64 72 71 63 50 49 41 30 23 21 21 28 28 22 37 46 57 80 83 70 75 99 95 95 83 89 94 112 105 108 111 110 111 103 97 99 97 94 92 91 94 94 92
50 51 53 53 52 48 36 35 26 21 18 10 9 16 19 23 21 25 65 64 91 87 99 112 102 90 87 88 88 93 122 116 115 110 99 100 101 101 101 96 99 96 98
41 37 36 37 37 34 34 37 41 25 13 15 7 10 12 10 19 30 29 40 57 67 81 80 78 79 81 75 77 91 107 93 102 97 95 97 93 105 93 100 95 97 97
34 37 32 28 14 14 20 20 20 25 26 17 16 9 9 12 15 25 30 36 38 48 57 65 76 71 81 78 83 88 80 82 74 76 90 88 82 85 75 78 88 84 87
31 22 25 23 23 20 15 15 15 20 19 16 17 15 10 11 17 22 25 29 34 41 47 44 62 64 64 74 81 80 77 78 83 84 83 83 81 75 71 70 76 78 82
20 26 32 30 29 27 28 23 22 21 20 23 20 16 15 16 16 20 25 31 36 34 39 46 55 54 54 65 68 74 77 77 66 83 81 83 89 79 79 82 78 79 80
38 38 38 39 41 40 40 40 33 31 36 31 32 29 25 19 21 24 25 26 33 41 48 47 46 49 57 65 55 53 61 65 66 71 77 74 74 77 77 86 90 86 82
39 37 35 36 39 41 45 44 45 48 48 46 43 41 41 35 29 29 32 32 33 38 39 42 52 56 56 56 60 62 63 59 62 61 69 62 59 63 75 72 72 79 83
39 41 43 44 42 44 49 51 50 52 58 61 56 53 49 47 45 41 37 37 38 40 39 42 46 50 56 58 64 66 64 63 64 62 62 55 54 61 64 66 67 62 69
49 51 52 53 53 54 56 55 58 61 65 66 66 67 66 61 57 56 50 47 46 48 45 42 45 48 48 55 61 66 64 61 69 69 67 65 64 52 54 57 55 60 57
55 58 63 64 61 61 61 64 67 67 68 69 73 74 72 77 73 60 56 55 50 50 48 52 51 45 48 50 49 51 55 60 64 66 65 62 59 54 54 50 54 55 54
63 68 69 68 69 69 66 63 64 70 72 73 72 74 76 82 79 75 62 56 56 52 48 55 51 41 41 43 42 44 50 49 56 63 63 64 59 53 53 50 49 50 53
63 67 70 74 75 75 75 78 69 67 63 67 71 70 77 84 82 82 72 62 58 55 53 56 51 43 42 40 40 40 46 49 54 59 61 58 55 53 53 50 46 49 51
60 67 70 69 69 73 76 79 89 80 69 69 66 65 71 76 79 83 73 63 59 59 60 56 51 46 46 43 41 44 45 49 51 53 56 55 51 50 51 53 53 53 51
60 66 67 69 70 68 68 66 69 73 81 83 72 66 60 64 68 69 65 59 65 64 61 65 54 49 50 47 46 50 49 48 48 48 47 44 44 46 47 46 48 50 47
65 69 70 70 70 71 68 68 64 66 70 77 76 72 62 52 56 60 60 66 71 66 61 60 58 52 51 48 48 49 47 49 47 45 43 41 41 42 44 45 45 45 45
67 70 72 77 77 77 71 69 64 65 64 66 69 68 55 46 49 57 64 72 71 62 56 51 53 53 52 50 46 48 49 49 46 42 41 41 42 43 43 40 39 41 42
66 69 73 75 71 71 66 63 57 55 55 50 49 46 46 47 44 47 60 65 60 55 51 50 54 54 55 51 53 52 52 49 46 46 47 46 46 46 41 38 36 36 39
61 64 65 66 63 63 61 58 52 41 37 39 39 36 36 38 39 42 54 50 47 50 50 49 53 55 54 54 54 55 54 52 51 51 51 49 48 48 48 45 43 39 38
56 62 65 63 60 59 59 55 48 38 31 30 32 35 34 31 31 36 36 29 39 47 44 47 50 55 56 58 58 55 54 52 50 49 50 49 47 45 45 44 43 40 35
50 54 58 56 55 52 49 48 45 37 30 26 26 23 17 22 20 21 21 30 38 44 45 50 57 58 57 56 53 51 48 48 47 45 43 46 46 44 41 38 35 33 34
45 48 53 54 51 49 43 38 34 29 25 19 13 14 17 18 18 19 26 35 39 46 47 50 53 54 55 56 54 52 50 48 47 45 43 42 43 42 41 40 39 37 35
42 44 46 48 48 44 43 36 27 19 12 7 5 10 13 16 20 28 35 39 49 53 54 56 54 51 49 47 48 49 49 49 47 46 46 44 45 44 43 42 40 38 37
Wind_Direction_850mb
159 196 205 205 210 216 221 221 223 218 214 211 224 240 235 242 244 244 243 242 241 237 236 232 234 238 240 242 244 245 245 244 245 252 255 256 258 260 260 262 261 260 260
73 86 100 139 159 175 187 203 220 221 222 221 229 219 224 234 245 237 245 236 238 240 243 241 238 238 239 243 245 245 245 245 244 249 253 256 259 263 264 265 265 265 264
66 61 62 72 78 89 106 119 153 186 196 208 228 234 227 224 218 231 237 234 234 260 245 248 248 245 242 238 241 245 248 250 249 247 252 256 259 260 260 263 263 263 261
59 60 56 52 54 60 65 72 77 107 159 176 189 188 212 232 242 238 238 253 247 238 256 245 251 247 240 235 235 248 248 247 248 246 248 252 257 259 260 260 262 263 264
42 46 50 57 56 46 51 46 51 64 78 105 154 183 212 211 221 217 224 239 235 244 247 243 245 250 257 243 248 258 246 248 245 245 246 251 251 253 256 264 263 267 266
43 43 24 18 34 52 47 26 39 25 35 34 232 134 213 211 228 235 234 224 226 232 236 238 239 242 249 248 248 251 257 250 252 251 252 254 262 257 271 259 264 260 258
35 25 22 31 24 3 352 7 27 9 22 19 14 347 277 245 225 225 238 244 239 226 228 234 240 251 249 251 248 245 245 252 257 261 256 254 262 263 270 269 268 262 277
15 7 357 353 347 343 348 333 314 321 344 351 356 337 337 313 285 265 255 247 242 240 241 238 236 243 254 258 245 250 248 253 255 250 252 258 264 263 268 272 272 268 263
342 339 333 332 323 315 304 302 313 312 305 288 284 292 311 314 303 290 282 274 264 254 251 246 240 240 242 246 253 250 255 253 248 253 251 257 263 262 265 262 255 256 250
339 333 328 315 311 305 301 293 290 295 288 288 281 277 277 283 294 294 286 279 273 261 255 256 255 250 244 247 248 250 256 259 258 260 249 255 250 247 252 259 260 257 252
341 334 325 317 311 306 299 292 291 280 278 278 277 277 276 271 270 282 289 286 280 274 265 254 252 253 248 243 242 247 251 258 260 256 258 255 256 248 244 249 251 254 256
338 332 326 323 316 307 299 294 288 283 275 272 269 267 269 272 273 269 270 283 292 285 270 259 256 252 252 248 243 243 246 251 252 250 254 254 254 251 245 251 252 249 255
334 332 330 325 320 314 307 299 290 283 281 277 271 265 264 263 264 268 275 281 288 292 285 269 253 252 250 248 247 242 243 244 247 246 246 241 242 250 244 240 238 236 240
332 331 330 328 325 318 314 305 297 289 281 276 274 270 266 263 260 260 267 270 272 282 288 285 269 251 253 254 250 247 244 243 247 247 245 245 238 232 232 231 230 227 226
330 330 329 327 322 318 312 299 293 291 287 284 275 270 265 261 261 260 257 266 269 271 279 278 271 259 256 252 251 251 250 242 240 245 241 239 235 228 223 224 223 224 223
327 328 329 327 324 320 316 311 302 292 286 279 277 272 263 257 253 254 253 250 256 263 269 269 261 252 252 251 249 247 251 244 239 235 232 230 225 222 215 210 211 214 213
325 327 326 323 321 320 316 314 311 306 296 289 284 273 266 261 252 250 248 246 245 251 258 257 254 250 251 245 243 243 243 240 233 226 223 220 215 217 208 201 197 201 200
325 327 326 326 322 314 315 311 303 300 298 296 289 281 271 267 256 252 246 241 242 241 250 250 245 246 247 242 238 237 229 224 220 219 215 210 208 206 203 197 194 189 190
328 330 330 327 324 322 319 317 308 297 294 285 285 275 271 258 256 251 240 232 233 237 246 249 238 234 238 236 229 226 221 217 209 207 208 199 193 195 190 185 179 180 179
331 333 334 332 331 330 326 321 316 301 296 284 275 267 268 263 248 237 227 224 228 235 244 248 242 233 229 225 220 211 206 202 193 189 189 180 169 169 169 167 174 180 180
334 334 336 332 331 327 324 318 311 298 288 286 279 273 261 258 255 238 226 224 229 237 239 242 238 229 219 209 202 199 196 186 178 174 170 168 164 163 159 161 166 171 167
338 336 336 334 333 329 328 323 318 310 302 297 287 277 268 268 253 234 225 228 242 248 236 230 222 215 203 194 189 185 179 171 166 162 159 157 155 152 151 157 161 168 169
342 343 343 340 338 336 334 332 329 326 322 308 297 288 275 250 229 220 222 241 239 231 217 211 206 194 181 171 166 163 163 161 159 158 158 156 155 155 156 160 164 168 170
346 347 348 347 347 344 338 334 337 338 333 320 299 281 259 221 214 218 228 242 218 209 199 186 180 174 169 162 159 156 158 157 156 154 159 159 156 153 153 160 168 173 178
345 348 353 355 355 356 350 343 339 335 334 330 303 258 228 218 217 227 221 204 197 185 171 165 162 160 158 156 156 156 157 157 157 158 158 159 158 158 161 166 172 173 177
352 351 356 1 5 5 6 5 1 355 347 320 262 218 207 202 202 195 185 176 171 162 154 151 148 150 153 155 155 157 157 160 161 162 162 163 163 162 168 174 175 175 176